{"data":{"norad_id":57390,"intl_designator":"2023-100E","name":"LEMUR-2-MANO","alt_names":[],"object_type":"PAYLOAD","status":"ACTIVE","operator":null,"country":"US","launch_date":"2023-07-18","launch_site_code":"RLLB","launch_vehicle":null,"mission":null,"orbit_class":"UNKNOWN","rcs_meters":null,"size_class":null,"mass_kg":null,"dimensions":null,"purposes":["earth_obs"],"wikipedia_slug":null,"has_3d_model":false,"image_url":null,"decayed_at":null,"tle_current":{"epoch":"2026-05-24T02:10:48.855936Z","epoch_age_seconds":157190,"freshness":"FRESH","line1":"1 57390U 23100E   26144.09084324  .02708307  36786-5  13522-2 0  9994","line2":"2 57390  99.4444 194.1069 0033888 214.5574 145.3505 16.19263619158379","mean_motion":16.19263619,"eccentricity":0.0033888,"inclination_deg":99.4444,"raan_deg":194.1069,"arg_perigee_deg":214.5574,"mean_anomaly_deg":145.3505,"bstar":0.0013522,"rev_number":15837,"period_min":88.929312256722,"perigee_km":199.18695063664,"apogee_km":243.91700264472,"semimajor_km":6599.6889766407,"source":"CELESTRAK","updated_at":"2026-05-25T13:38:13.532473Z"}}}